Regional Weather Roundup
Issued by NWS

Home | Current Version | Previous Version | Text Only | Print | Product List | Glossary On
Versions: 1 2 3 4 5 6 7 8 9 10 11 12 13 14 15 16 17 18 19 20 21 22 23 24 25 26 27 28 29 30 31 32 33 34 35 36 37 38 39 40 41 42 43 44 45 46 47 48 49 50
000
ASUS44 KLIX 050911
RWRLA
LOUISIANA WEATHER ROUNDUP
NATIONAL WEATHER SERVICE NEW ORLEANS LA
400 AM CDT SUN JUL 05 2015

NOTE: "FAIR" INDICATES FEW OR NO CLOUDS BELOW 12,000 FEET WITH NO
      SIGNIFICANT WEATHER AND/OR OBSTRUCTIONS TO VISIBILITY.
      SKY/WX - SKY CONDITION AND SIGNIFICANT WEATHER.
      TMP - AIR TEMPERATURE.    DP   - DEWPOINT TEMPERATURE.
      RH  - RELATIVE HUMIDITY.  PRES - PRESSURE.
      HX  - HEAT INDEX.         WCI  - WIND CHILL INDEX.

*  THESE STATIONS ARE NOT NWS OR FAA STATIONS AND ARE NOT UNDER
   NWS QUALITY CONTROL.

LAZ040-048-061>063-065-066-069-051000-
SOUTHEAST LOUISIANA

CITY           SKY/WX    TMP DP  RH WIND       PRES   REMARKS
N.O. AUDUBON     N/A     82  78  89 MISG        N/A
N.O. INTL ARPT CLOUDY    80  73  79 CALM      30.07R
N.O. LAKEFRONT CLOUDY    83  73  72 CALM      30.08R
N.O. DOWNTOWN* FAIR      84  73  70 CALM      30.08R
RESERVE*       FAIR      79  74  86 SE3       30.07R
SLIDELL        CLOUDY    74  73  97 CALM      30.07R
BATON ROUGE    CLOUDY    74  73  97 CALM      30.07R FOG
BOOTHVILLE     CLOUDY    83  77  82 S9        30.07S
BELLE CHASSE   CLOUDY    76  74  93 CALM      30.07R
BOGALUSA*        N/A     73  70  89 N3        30.10R
GALLIANO*      CLOUDY    76  74  95 CALM      30.07R FOG
NEW ROADS*     FAIR     N/A N/A N/A CALM      30.07R HAZE
GONZALES*      FAIR      75  75 100 CALM      30.06R
HAMMOND*       DRIZZLE   75  72  88 CALM      30.10R
HOUMA*         CLOUDY    76  76  98 CALM      30.07R FOG
PORT FOURCHON* MOSUNNY   84  77  79 S6        30.07S

$$

LAZ041-044-053-054-051000-
SOUTHWEST LOUISIANA

CITY           SKY/WX    TMP DP  RH WIND       PRES   REMARKS
LAKE CHARLES   MOCLDY    79  77  94 CALM      30.04S
LAFAYETTE      CLOUDY    77  75  93 CALM      30.06R
PATTERSON      CLOUDY    79  75  89 CALM      30.08R
SALT POINT       N/A     82  77  84 CALM      30.04R
NEW IBERIA     NOT AVBL
CHENAULT AIRPK PTCLDY    77  76  98 CALM      30.05S

$$

LAZ027-028-051000-
CENTRAL LOUISIANA

CITY           SKY/WX    TMP DP  RH WIND       PRES   REMARKS
FORT POLK      CLOUDY    75  73  94 S5        30.05R FOG
ALEXANDRIA INT MOCLDY    72  72 100 CALM      30.04R
ALEXANDRIA     CLOUDY    73  70  90 CALM      30.06R

$$

LAZ001-002-051000-
NORTHWEST LOUISIANA

CITY           SKY/WX    TMP DP  RH WIND       PRES   REMARKS
SHREVEPORT     CLOUDY    75  72  90 SW6       30.03R
BARKSDALE AFB  CLOUDY    73  73 100 SE5       30.03R
DTN SHREVEPORT CLOUDY    75  71  87 S6        30.03R

$$

LAZ014-016-051000-
NORTHEAST LOUISIANA

CITY           SKY/WX    TMP DP  RH WIND       PRES   REMARKS
MONROE         CLOUDY    71  71 100 SE3       30.06R
TALLULAH       CLOUDY    72  69  90 SE5       30.07R

$$




USA.gov is the U.S. government's official web portal to all federal, state and local government web resources and services.